Baton Rouge, LA

4:23 AM CDT on October 15, 2019 (GMT -0500)
Baton Rouge Metro-Ryan

Weather History for KBTR - August, 2019

Change the Weather History Date:

Monday, August 26, 2019

  Actual Average Record
Temperature  
Mean Temperature 82 °F 83 °F  
Max Temperature 88 °F 92 °F 102 °F (1924)
Min Temperature 75 °F 73 °F 62 °F (1966)
Degree Days  
Heating Degree Days 0 0  
Month to date heating degree days 0 0  
Since 1 June heating degree days 0 0  
Since 1 July heating degree days 0 0  
Cooling Degree Days 17 18  
Month to date cooling degree days 509 468  
Year to date cooling degree days 2243 2073  
Since 1 June cooling degree days 1572 1508  
Growing Degree Days 31 (Base 50)    
Moisture  
Dew Point 74 °F    
Average Humidity 85    
Maximum Humidity 100    
Minimum Humidity 70    
Precipitation  
Precipitation 0.19 in 0.16 in 7.50 in (1926)
Month to date precipitation 6.89 4.96  
Year to date precipitation 48.31 40.85  
Snow  
Snow 0.00 in - - ()
Month to date snowfall 0.0  
Since 1 June snowfall 0.0  
Since 1 July snowfall 0.0  
Snow Depth 0.00 in    
Sea Level Pressure  
Sea Level Pressure 29.87 in    
Wind  
Wind Speed 8 mph (South)    
Max Wind Speed 23 mph    
Max Gust Speed 28 mph    
Visibility 9 miles    
Events Fog , Rain , Thunderstorm    
T = Trace of Precipitation, MM = Missing Value Source: NWS Daily Summary

Daily Weather History Graph

Daily Weather History Graph

Search for Another Location

Airport or City:

Astronomy

Aug. 26, 2019 Rise Set
Actual Time 6:37 AM CDT 7:34 PM CDT
Civil Twilight 6:12 AM CDT 7:59 PM CDT
Nautical Twilight 5:43 AM CDT 8:28 PM CDT
Astronomical Twilight 5:13 AM CDT 8:58 PM CDT
Moon 2:17 AM CDT (8/26) 4:43 PM CDT (8/26)
Length of Visible Light 13h 46m
Length of Day
12h 57m
Waning Crescent, 19% of the Moon is Illuminated
Aug 26
Waning Crescent
Aug 30
New
Sep 5
First Quarter
Sep 13
Full
Sep 21
Last Quarter

Hourly Weather History & Observations

Time (CDT) Temp. Heat Index Dew Point Humidity Pressure Visibility Wind Dir Wind Speed Gust Speed Precip Events Conditions
12:09 AM 77.0 °F - 73.9 °F 90% 29.88 in 9.0 mi SSE 4.6 mph - N/A   Overcast
12:50 AM 77.0 °F - 75.2 °F 94% 29.88 in 9.0 mi SSE 6.9 mph - N/A   Overcast
12:53 AM 77.0 °F - 75.0 °F 94% 29.88 in 9.0 mi SSE 6.9 mph - N/A   Overcast
1:05 AM 77.0 °F - 75.0 °F 94% 29.88 in 9.0 mi SSE 9.2 mph - N/A   Overcast
1:14 AM 77.0 °F - 75.0 °F 94% 29.87 in 9.0 mi SSE 9.2 mph - N/A   Overcast
1:37 AM 77.0 °F - 75.0 °F 94% 29.87 in 9.0 mi South 9.2 mph - N/A   Overcast
1:53 AM 77.0 °F - 75.0 °F 94% 29.86 in 9.0 mi South 11.5 mph - N/A   Mostly Cloudy
2:11 AM 77.0 °F - 75.0 °F 94% 29.86 in 6.0 mi South 12.7 mph - 0.00 in Rain Light Rain
2:53 AM 77.0 °F - 73.9 °F 90% 29.86 in 10.0 mi South 11.5 mph - 0.02 in   Overcast
3:12 AM 77.0 °F - 73.4 °F 89% 29.85 in 10.0 mi South 10.4 mph - N/A   Overcast
3:19 AM 77.0 °F - 73.9 °F 90% 29.85 in 10.0 mi South 10.4 mph - N/A   Overcast
3:53 AM 77.0 °F - 75.0 °F 94% 29.85 in 10.0 mi South 8.1 mph - N/A   Overcast
4:53 AM 78.1 °F - 75.0 °F 90% 29.86 in 10.0 mi South 6.9 mph - N/A   Mostly Cloudy
5:53 AM 78.1 °F - 75.0 °F 90% 29.86 in 10.0 mi SW 12.7 mph - N/A   Overcast
6:53 AM 78.1 °F - 75.9 °F 93% 29.87 in 10.0 mi SW 8.1 mph - N/A   Overcast
7:53 AM 79.0 °F - 75.9 °F 90% 29.87 in 10.0 mi SW 8.1 mph - N/A   Partly Cloudy
8:53 AM 80.1 °F 85.1 °F 75.0 °F 85% 29.88 in 10.0 mi SW 8.1 mph - N/A   Overcast
9:53 AM 80.1 °F 84.5 °F 73.9 °F 81% 29.89 in 10.0 mi SSW 9.2 mph - N/A   Mostly Cloudy
10:53 AM 82.0 °F 89.4 °F 75.9 °F 82% 29.90 in 10.0 mi SSE 5.8 mph - N/A   Mostly Cloudy
11:53 AM 87.1 °F 99.8 °F 78.1 °F 74% 29.88 in 10.0 mi SSW 10.4 mph - N/A   Mostly Cloudy
12:17 PM 84.0 °F 93.7 °F 77.0 °F 79% 29.89 in 9.0 mi WSW 12.7 mph - 0.00 in Rain , Thunderstorm Light Rain
12:53 PM 78.1 °F - 73.9 °F 87% 29.89 in 10.0 mi SSW 11.5 mph - 0.00 in   Overcast
12:59 PM 78.1 °F - 73.9 °F 87% 29.89 in 10.0 mi South 9.2 mph - N/A Thunderstorm Mostly Cloudy
1:27 PM 78.1 °F - 75.0 °F 90% 29.88 in 10.0 mi SSW 11.5 mph - N/A   Mostly Cloudy
1:53 PM 81.0 °F 87.3 °F 75.9 °F 85% 29.88 in 10.0 mi ESE 8.1 mph - N/A   Partly Cloudy
2:28 PM 87.1 °F 99.8 °F 78.1 °F 74% 29.85 in 10.0 mi South 9.2 mph - N/A Thunderstorm Clear
2:53 PM 86.0 °F 96.0 °F 75.9 °F 72% 29.86 in 10.0 mi WSW 17.3 mph 26.5 mph N/A Thunderstorm Mostly Cloudy
2:57 PM 84.0 °F 90.2 °F 73.0 °F 69% 29.86 in 10.0 mi WSW 16.1 mph 26.5 mph N/A Thunderstorm Mostly Cloudy
3:13 PM 80.1 °F 83.8 °F 72.0 °F 76% 29.85 in 10.0 mi WSW 6.9 mph - 0.00 in   Mostly Cloudy
3:18 PM 80.1 °F 84.2 °F 73.0 °F 79% 29.85 in 10.0 mi SW 6.9 mph - 0.00 in   Mostly Cloudy
3:53 PM 84.0 °F 90.2 °F 73.0 °F 69% 29.85 in 10.0 mi East 5.8 mph - 0.00 in   Partly Cloudy
4:53 PM 81.0 °F 86.2 °F 73.9 °F 79% 29.85 in 9.0 mi SSW 13.8 mph 26.5 mph 0.00 in Rain Light Rain
5:26 PM 84.0 °F 91.9 °F 75.0 °F 74% 29.85 in 10.0 mi ESE 4.6 mph - 0.00 in Thunderstorm Scattered Clouds
5:51 PM 82.4 °F 89.5 °F 75.2 °F 79% 29.85 in 10.0 mi East 6.9 mph - 0.00 in   Scattered Clouds
5:53 PM 82.0 °F 88.6 °F 75.0 °F 79% 29.85 in 10.0 mi East 5.8 mph - 0.00 in Thunderstorm Scattered Clouds
6:04 PM 81.0 °F 86.2 °F 73.9 °F 79% 29.85 in 10.0 mi ENE 4.6 mph - N/A Thunderstorm Thunderstorm
6:12 PM 81.0 °F 86.7 °F 75.0 °F 82% 29.85 in 10.0 mi ENE 4.6 mph - N/A Thunderstorm Thunderstorm
6:17 PM 81.0 °F 86.7 °F 75.0 °F 82% 29.87 in 10.0 mi North - - N/A Thunderstorm Mostly Cloudy
6:22 PM 81.0 °F 86.2 °F 73.9 °F 79% 29.87 in 2.5 mi WSW 11.5 mph - N/A Thunderstorm Unknown
6:38 PM 75.9 °F - 72.0 °F 87% 29.87 in 0.5 mi SW 20.7 mph 28.8 mph 0.01 in Fog , Rain , Thunderstorm Heavy Thunderstorms and Rain
6:53 PM 75.0 °F - 72.0 °F 90% 29.86 in 1.2 mi South 15.0 mph - 0.11 in Rain , Thunderstorm Heavy Thunderstorms and Rain
7:04 PM 77.0 °F - 71.1 °F 82% 29.86 in 3.0 mi South 11.5 mph - 0.04 in Rain , Thunderstorm Thunderstorms and Rain
7:33 PM 75.0 °F - 72.0 °F 90% 29.87 in 10.0 mi East 5.8 mph - 0.06 in Rain , Thunderstorm Light Rain
7:53 PM 75.0 °F - 72.0 °F 90% 29.87 in 10.0 mi South 4.6 mph - 0.06 in   Scattered Clouds
8:53 PM 75.0 °F - 73.0 °F 94% 29.88 in 10.0 mi East 3.5 mph - N/A   Clear
9:53 PM 75.9 °F - 73.9 °F 94% 29.91 in 10.0 mi East 4.6 mph - N/A   Clear
10:53 PM 75.9 °F - 73.9 °F 94% 29.91 in 10.0 mi Calm Calm - N/A   Clear
11:53 PM 75.9 °F - 75.0 °F 97% 29.88 in 9.0 mi SSE 4.6 mph - N/A   Partly Cloudy